Wind_Speed
18 18 18 17 17 18 19 19 20 21 24 22 21 22 21 21 22 22 21 21 22 23 23 22 21 22 22 22 21 21 21 20 21 21 21 20 20 20 20 19 19 19 19 20
19 17 16 16 17 17 17 18 20 21 23 23 22 22 23 23 23 23 22 22 22 23 23 23 22 22 22 22 22 22 21 21 21 21 21 21 21 21 20 19 19 19 19 20
18 17 17 18 18 18 19 20 21 23 23 23 22 23 24 23 22 21 22 22 22 22 23 23 22 21 22 22 22 22 22 22 22 21 21 21 21 21 20 19 19 18 19 19
17 18 18 18 19 20 20 21 23 25 25 24 24 23 24 24 24 23 23 23 23 23 23 22 22 22 22 23 23 23 23 23 22 21 21 21 21 21 20 19 18 18 18 18
18 18 20 20 21 21 22 23 23 24 25 25 24 24 25 25 24 24 23 23 24 23 23 23 23 23 23 23 24 24 24 23 22 21 21 22 21 21 20 19 18 18 19 19
20 20 19 22 22 22 22 25 25 25 25 25 24 25 25 25 24 24 23 23 24 24 23 23 23 22 23 23 23 23 23 23 22 22 22 22 22 21 21 20 20 20 20 20
21 21 22 24 23 23 23 25 25 25 25 25 25 26 25 24 24 23 22 23 23 23 23 24 23 23 23 23 23 23 23 23 23 23 23 22 22 21 21 21 21 21 21 21
22 22 23 24 25 24 24 25 26 26 26 26 26 26 26 25 24 23 24 24 24 24 24 24 24 24 24 24 24 24 23 24 24 24 23 23 23 23 23 23 23 22 22 22
24 25 25 25 26 26 26 26 26 26 26 25 25 25 25 25 24 24 24 24 24 24 24 24 24 24 24 25 24 24 24 24 24 23 24 23 23 24 23 23 23 23 23 22
24 25 26 26 27 26 26 26 26 26 26 25 24 25 25 24 24 23 23 23 23 23 23 23 24 24 23 23 23 23 23 23 23 23 23 23 23 23 23 22 22 21 21 22
24 25 26 25 25 25 25 25 26 25 25 25 24 25 25 24 23 23 24 24 24 24 24 24 23 23 22 21 22 22 22 22 23 23 23 22 21 21 22 21 21 21 20 21
24 24 24 24 24 24 23 24 24 24 23 23 24 24 25 24 24 24 24 24 24 24 24 24 24 23 22 22 22 21 21 22 22 23 22 22 21 21 21 21 21 20 20 21
23 23 24 24 24 24 24 23 23 23 22 22 23 23 23 24 24 24 24 24 24 24 25 24 23 23 22 22 22 22 22 21 21 21 22 21 21 20 20 20 20 21 21 22
23 24 25 24 24 24 23 23 23 23 23 23 23 24 24 24 24 25 24 24 24 24 23 23 23 22 22 22 22 22 22 22 22 21 21 21 20 20 20 20 20 20 20 21
24 24 24 24 24 24 24 24 24 24 24 24 24 25 25 24 24 24 24 24 23 23 23 23 22 23 23 22 22 22 22 22 22 22 21 21 20 20 20 21 21 20 20 20
24 24 24 24 24 24 24 24 24 24 24 25 25 25 24 24 24 24 23 23 23 22 23 23 22 22 23 22 22 22 22 22 23 22 22 21 21 21 21 21 21 21 21 21
24 23 24 24 23 23 23 23 23 24 25 25 25 25 24 24 24 24 24 23 23 23 22 22 22 22 22 23 23 23 23 22 22 22 22 22 22 22 22 22 22 21 21 22
24 24 24 24 23 23 23 23 23 24 24 25 25 25 24 24 24 24 23 23 23 23 22 22 22 23 23 23 23 23 23 23 22 23 22 22 22 22 22 22 22 22 22 23
24 24 24 23 23 24 24 24 23 23 23 23 24 24 24 24 24 24 24 23 23 23 23 22 22 23 23 22 23 23 23 23 23 23 23 23 23 23 23 22 22 23 23 23
23 24 24 23 23 23 23 23 23 23 23 24 23 24 24 24 24 24 24 24 23 23 23 23 23 23 22 22 22 23 23 24 23 22 22 23 23 23 23 24 23 23 24 24
22 22 23 23 23 23 23 23 23 23 23 22 23 23 23 23 23 23 22 22 22 22 22 22 22 22 22 22 22 23 24 24 22 22 22 22 23 23 23 23 23 24 23 23
21 21 22 22 22 22 22 22 22 22 22 22 22 22 22 22 22 22 22 22 21 21 22 22 22 22 22 22 23 23 24 23 23 22 22 22 22 22 22 23 23 23 23 23
21 21 21 20 20 20 21 22 22 22 22 22 21 21 21 21 21 20 20 20 20 21 21 21 22 22 22 22 22 22 22 22 22 21 21 22 21 21 21 22 22 21 21 21
19 20 20 20 20 20 20 20 21 21 21 21 21 21 21 21 20 20 20 19 19 20 20 20 21 21 22 23 23 22 22 21 21 21 21 22 21 21 21 21 21 21 21 21
19 19 18 18 18 19 19 20 20 20 20 20 20 20 20 20 21 21 20 20 20 20 20 20 21 22 22 21 21 21 21 21 21 21 22 22 22 22 22 21 22 21 21 21
19 19 19 19 18 18 19 19 18 18 19 19 19 19 20 20 21 21 20 20 20 20 20 20 20 20 20 20 20 21 21 21 21 22 22 22 22 22 22 22 21 20 21 21
19 20 19 19 18 18 19 19 18 18 19 19 19 19 19 19 19 19 19 19 19 20 20 21 21 21 21 21 21 21 21 21 21 21 21 21 21 22 22 22 21 21 21 20
Wind_Direction
248 252 253 257 258 257 252 252 256 263 268 273 269 270 274 278 280 283 281 280 280 283 284 282 283 284 286 290 290 291 291 291 292 294 294 295 294 291 287 281 277 275 271 269
249 255 255 258 262 264 261 258 260 264 271 273 273 277 280 281 281 281 280 279 280 282 283 283 285 285 285 289 288 288 289 289 291 293 295 297 296 294 289 285 278 275 273 270
252 254 257 260 260 259 257 260 263 267 269 271 274 278 279 281 279 277 278 280 281 282 284 285 286 285 285 286 287 286 286 290 291 293 294 296 296 296 292 289 283 278 276 273
255 259 260 261 261 262 263 262 262 265 268 273 275 277 277 279 280 279 279 280 281 281 281 281 283 284 285 285 286 286 288 290 290 290 291 292 292 292 290 287 284 281 277 273
254 260 264 264 262 263 266 265 265 267 270 271 273 275 277 279 280 281 281 280 280 280 279 279 280 282 283 285 287 288 288 290 290 289 288 288 289 290 289 285 282 280 279 276
258 257 261 264 263 264 264 265 267 268 269 272 273 275 277 278 280 281 280 279 279 279 279 279 279 280 282 283 285 285 286 287 287 286 287 287 287 287 287 283 281 282 282 278
257 257 259 263 267 267 265 268 271 270 271 274 274 274 276 278 279 279 279 279 279 278 277 278 279 279 281 283 284 285 285 285 286 285 286 287 287 286 286 284 282 281 281 278
258 258 261 265 267 269 269 270 270 271 270 271 273 273 275 276 277 277 278 278 278 278 278 279 280 279 280 280 282 283 284 284 284 285 285 285 285 285 283 282 281 280 280 279
258 259 263 264 264 269 271 270 271 271 270 270 271 272 275 276 276 277 277 278 278 278 279 280 281 282 281 281 280 282 284 284 284 285 284 284 284 284 283 282 281 279 277 275
259 262 267 269 268 271 272 272 271 270 270 268 269 272 274 275 275 276 277 280 280 280 280 282 283 282 282 281 281 282 283 283 284 285 284 284 284 283 284 284 281 279 276 276
261 263 266 270 271 273 272 272 273 272 270 270 269 270 273 274 274 274 277 280 281 282 281 282 284 284 285 282 279 280 282 283 284 286 287 288 287 285 284 283 280 278 277 278
262 265 268 269 272 275 275 273 272 271 271 271 270 269 269 272 274 275 277 280 281 282 282 283 283 283 283 283 281 282 283 284 285 287 288 287 287 285 284 284 281 278 277 279
264 267 268 271 273 273 273 272 272 274 274 272 272 273 274 275 275 276 277 279 280 280 282 284 284 283 283 282 283 284 285 285 286 288 289 288 288 286 287 286 283 280 278 279
266 268 269 272 273 273 272 271 272 273 273 273 273 274 275 275 275 276 277 278 278 278 279 280 281 281 282 284 286 287 288 286 285 286 287 286 286 286 287 288 288 285 282 280
267 269 270 272 272 272 271 271 271 271 272 274 273 273 274 275 276 276 277 277 277 278 278 280 280 281 282 284 285 287 289 288 286 285 284 284 284 284 286 288 287 286 286 283
268 269 271 272 272 272 271 271 271 271 272 273 273 273 273 275 276 277 277 277 277 276 277 278 279 280 282 283 284 286 287 288 287 286 285 284 283 283 284 286 285 284 285 285
269 270 270 271 271 271 270 272 272 273 274 274 274 274 274 277 277 277 276 276 276 276 276 278 279 279 280 283 284 285 287 288 287 285 286 286 284 283 283 283 281 281 283 283
268 269 270 270 270 269 271 273 274 275 276 276 275 275 274 275 276 276 277 277 276 276 277 277 279 279 280 283 284 284 284 286 287 287 286 286 285 283 282 282 282 281 280 281
266 267 268 270 270 270 271 273 275 276 276 277 276 276 276 275 275 275 275 276 276 277 277 279 279 279 279 281 284 283 283 283 284 285 286 285 284 281 281 281 280 280 281 281
266 267 268 269 270 270 272 273 274 275 276 277 277 278 278 277 277 277 275 274 274 275 275 276 277 278 279 279 280 282 284 284 283 283 285 285 285 284 283 284 283 281 280 282
267 268 268 270 270 270 271 274 275 275 277 277 277 278 277 277 277 276 274 273 273 273 274 275 275 275 276 278 278 280 284 285 282 283 285 285 285 285 286 285 284 284 283 281
269 269 269 270 271 272 273 275 277 277 277 277 277 277 277 278 278 276 275 275 274 274 275 276 275 276 276 278 279 280 282 283 284 283 284 285 286 287 286 285 285 284 281 280
270 270 270 271 272 274 275 276 276 278 278 278 278 278 278 279 280 278 276 276 276 277 277 277 277 277 277 278 279 280 281 282 283 283 284 286 286 285 286 286 286 284 282 282
269 270 270 272 274 275 276 276 276 277 279 280 281 280 279 280 281 280 277 277 278 279 278 277 278 278 277 278 279 280 281 282 284 284 284 286 287 286 285 285 285 285 283 283
267 270 272 274 276 277 277 277 278 279 280 281 280 279 278 279 280 280 278 276 277 279 278 278 280 279 278 279 281 282 282 282 283 284 286 288 288 287 286 285 284 284 284 284
266 269 271 272 274 277 279 279 280 281 282 282 280 280 281 281 281 280 277 276 278 279 279 279 280 281 282 283 285 286 285 283 282 282 283 285 286 286 285 284 285 285 285 284
268 268 269 271 274 277 279 279 280 282 283 282 281 282 282 281 281 281 280 278 279 281 281 282 282 283 285 285 284 285 285 284 284 284 286 286 286 286 285 285 286 287 286 283
Height
5829 5829 5830 5832 5832 5833 5834 5834 5834 5833 5831 5830 5829 5828 5828 5827 5826 5824 5824 5824 5824 5823 5822 5820 5820 5819 5817 5817 5816 5814 5813 5812 5811 5810 5808 5807 5805 5803 5802 5802 5802 5802 5802 5803
5824 5825 5825 5826 5827 5828 5828 5829 5829 5828 5826 5823 5823 5823 5823 5823 5822 5820 5820 5820 5819 5818 5817 5815 5815 5814 5813 5812 5810 5809 5808 5807 5806 5805 5803 5802 5800 5798 5797 5796 5796 5796 5796 5797
5819 5820 5820 5821 5822 5822 5822 5823 5823 5821 5821 5818 5818 5818 5818 5817 5816 5815 5815 5815 5814 5813 5812 5810 5809 5808 5807 5806 5805 5804 5803 5802 5801 5799 5798 5797 5795 5793 5792 5791 5791 5791 5791 5791
5814 5815 5815 5819 5816 5816 5816 5817 5816 5814 5813 5813 5813 5812 5811 5811 5810 5810 5809 5809 5808 5807 5806 5805 5804 5803 5802 5800 5799 5798 5797 5796 5795 5794 5793 5792 5790 5788 5787 5786 5786 5785 5786 5786
5809 5810 5810 5812 5810 5811 5811 5810 5809 5809 5808 5807 5806 5806 5805 5805 5805 5804 5803 5803 5802 5801 5800 5799 5798 5797 5796 5795 5794 5793 5791 5791 5789 5788 5787 5786 5785 5783 5782 5781 5781 5781 5781 5781
5803 5804 5804 5805 5804 5804 5805 5804 5803 5803 5802 5801 5800 5800 5799 5798 5798 5798 5797 5796 5796 5795 5794 5793 5792 5791 5790 5789 5788 5787 5786 5785 5784 5783 5782 5781 5780 5778 5777 5777 5776 5776 5775 5775
5797 5797 5798 5797 5796 5798 5800 5798 5797 5796 5796 5795 5794 5793 5793 5791 5792 5791 5791 5790 5789 5789 5788 5787 5786 5785 5784 5783 5782 5781 5780 5779 5778 5778 5777 5775 5774 5773 5772 5771 5771 5770 5770 5770
5791 5791 5793 5790 5790 5791 5791 5790 5789 5789 5788 5788 5786 5786 5785 5785 5785 5784 5784 5783 5783 5782 5781 5781 5780 5779 5778 5777 5776 5775 5774 5773 5772 5772 5771 5769 5769 5767 5767 5766 5765 5764 5764 5764
5785 5785 5784 5784 5783 5783 5783 5783 5782 5781 5781 5781 5780 5779 5779 5778 5778 5778 5777 5777 5776 5775 5775 5774 5773 5772 5771 5770 5769 5769 5768 5767 5766 5765 5764 5763 5762 5761 5760 5759 5759 5758 5757 5757
5778 5777 5777 5776 5776 5775 5776 5775 5774 5774 5774 5774 5773 5772 5772 5772 5771 5771 5770 5770 5769 5769 5768 5767 5767 5765 5764 5763 5762 5762 5761 5761 5760 5759 5758 5757 5756 5755 5754 5753 5752 5752 5751 5750
5771 5771 5770 5770 5769 5769 5768 5768 5767 5766 5766 5766 5766 5766 5765 5765 5765 5764 5764 5763 5763 5762 5761 5760 5760 5759 5758 5757 5756 5755 5755 5755 5754 5753 5752 5751 5749 5748 5747 5746 5745 5745 5745 5744
5765 5765 5765 5764 5763 5762 5762 5761 5760 5760 5760 5759 5759 5759 5758 5758 5758 5758 5757 5757 5756 5755 5754 5754 5753 5753 5752 5752 5751 5750 5750 5749 5748 5747 5746 5745 5743 5742 5741 5741 5740 5739 5739 5738
5758 5758 5758 5757 5757 5756 5756 5755 5754 5754 5753 5752 5752 5752 5751 5751 5752 5751 5751 5750 5749 5748 5748 5747 5747 5746 5746 5745 5744 5744 5744 5743 5742 5741 5740 5739 5738 5736 5735 5735 5734 5733 5733 5732
5752 5752 5751 5751 5751 5750 5749 5749 5748 5748 5747 5746 5746 5746 5745 5745 5745 5744 5744 5743 5742 5741 5741 5741 5740 5740 5739 5739 5738 5738 5737 5736 5735 5734 5734 5733 5732 5730 5729 5728 5728 5727 5726 5725
5745 5745 5745 5744 5744 5743 5743 5742 5742 5741 5740 5740 5739 5738 5738 5738 5737 5737 5737 5736 5735 5735 5735 5734 5734 5734 5733 5732 5732 5731 5730 5729 5728 5728 5727 5726 5725 5724 5724 5723 5722 5721 5720 5719
5738 5738 5738 5737 5737 5737 5736 5735 5735 5734 5734 5733 5732 5731 5730 5730 5730 5730 5729 5729 5729 5728 5728 5728 5727 5727 5727 5726 5725 5725 5724 5723 5722 5721 5720 5719 5719 5718 5717 5717 5716 5715 5714 5713
5731 5731 5731 5731 5731 5730 5729 5729 5728 5727 5727 5726 5725 5724 5724 5723 5723 5723 5722 5722 5722 5722 5722 5721 5721 5720 5719 5719 5719 5718 5717 5716 5715 5714 5713 5713 5712 5711 5710 5710 5709 5708 5708 5707
5725 5724 5724 5724 5724 5723 5723 5722 5721 5720 5720 5719 5718 5717 5717 5717 5716 5716 5715 5714 5715 5715 5714 5714 5714 5713 5713 5713 5712 5711 5710 5709 5708 5707 5706 5705 5704 5703 5703 5703 5702 5702 5701 5700
5718 5718 5718 5717 5717 5717 5716 5716 5715 5714 5713 5712 5711 5711 5710 5710 5710 5709 5709 5708 5708 5708 5708 5707 5706 5706 5706 5706 5705 5704 5703 5702 5702 5700 5699 5699 5698 5697 5696 5695 5695 5694 5694 5693
5711 5711 5710 5710 5710 5709 5709 5709 5708 5707 5706 5705 5705 5704 5703 5703 5702 5702 5701 5701 5701 5701 5700 5700 5700 5699 5699 5699 5698 5697 5696 5695 5694 5693 5692 5691 5691 5690 5689 5688 5687 5686 5686 5686
5704 5704 5703 5703 5703 5703 5702 5702 5701 5700 5700 5699 5698 5697 5696 5695 5695 5694 5694 5694 5694 5694 5693 5693 5692 5692 5692 5691 5691 5690 5689 5688 5687 5686 5686 5684 5683 5683 5682 5681 5680 5679 5679 5678
5697 5697 5696 5696 5696 5696 5696 5695 5695 5694 5693 5692 5691 5690 5689 5689 5688 5687 5687 5687 5687 5687 5687 5686 5686 5686 5685 5684 5684 5683 5682 5681 5680 5679 5679 5678 5677 5675 5674 5673 5673 5672 5671 5671
5691 5690 5690 5690 5690 5689 5689 5689 5688 5687 5687 5686 5685 5684 5683 5682 5682 5681 5681 5681 5680 5680 5680 5679 5679 5679 5678 5677 5677 5676 5675 5674 5673 5673 5672 5671 5670 5668 5667 5666 5665 5665 5664 5664
5685 5684 5684 5684 5684 5683 5683 5683 5682 5681 5680 5680 5679 5678 5677 5676 5675 5674 5674 5674 5674 5673 5673 5673 5672 5672 5671 5671 5670 5669 5668 5667 5667 5666 5665 5664 5663 5661 5661 5660 5659 5658 5657 5657
5679 5679 5679 5678 5678 5677 5677 5676 5676 5675 5674 5673 5672 5671 5671 5670 5669 5668 5668 5668 5667 5667 5666 5666 5666 5665 5665 5664 5663 5663 5662 5661 5660 5659 5659 5658 5656 5655 5654 5653 5652 5651 5650 5650
5673 5673 5673 5672 5672 5671 5671 5670 5669 5669 5668 5667 5666 5666 5665 5664 5663 5662 5662 5662 5661 5661 5660 5660 5660 5659 5658 5657 5656 5656 5655 5654 5653 5652 5652 5651 5650 5649 5647 5646 5645 5644 5643 5643
5667 5666 5666 5666 5666 5665 5665 5664 5664 5663 5662 5661 5661 5660 5659 5658 5657 5657 5656 5656 5655 5655 5654 5654 5653 5653 5652 5651 5650 5649 5648 5648 5647 5646 5645 5644 5643 5642 5640 5639 5638 5637 5636 5635